GW6129 Weather Reports


Display with metric or nautical units.
time (UTC)temp
F
wind
direction
speed
MPH
gust
MPH
rain 1hr
in
rain 24hr
in
rain mn
in
humidity
%
barometer
mb
20260505164512 74 209 10.0 15.0 0.00 0.00 0.00 86 1009.2
20260505164007 74 209 7.0 15.0 0.00 0.00 0.00 86 1009.1
20260505163507 74 222 10.0 13.0 0.00 0.00 0.00 86 1009.1
20260505163003 74 197 8.0 15.0 0.00 0.00 0.00 86 1009.0
20260505162504 74 194 10.0 17.0 0.00 0.00 0.00 86 1009.0
20260505162003 74 228 11.0 19.0 0.00 0.00 0.00 86 1009.0
20260505161506 74 205 11.0 19.0 0.00 0.00 0.00 86 1009.0
20260505161004 74 207 10.0 15.0 0.00 0.00 0.00 1009.0
20260505160504 74 216 9.0 15.0 0.00 0.00 0.00 86 1008.9
20260505152004 73 175 9.0 20.0 0.00 0.00 0.00 1008.9
20260505151503 73 195 11.0 20.0 0.00 0.00 0.00 86 1008.8
20260505151006 74 205 7.0 17.0 0.00 0.00 0.00 86 1008.8
20260505150506 73 211 11.0 17.0 0.00 0.00 0.00 86 1008.8
20260505140503 73 242 8.0 14.0 0.00 0.00 0.00 87 1008.2
20260505125003 72 215 10.0 17.0 0.00 0.00 0.00 87 1007.9
20260505124507 71 209 8.0 13.0 0.00 0.00 0.00 87 1007.8
20260505124007 71 173 8.0 14.0 0.00 0.00 0.00 87 1007.7
20260505123504 71 182 9.0 15.0 0.00 0.00 0.00 87 1007.7
20260505123012 71 186 9.0 16.0 0.00 0.00 0.00 87 1007.7
20260505122507 71 188 8.0 16.0 0.00 0.00 0.00 87 1007.6
20260505122008 71 155 8.0 13.0 0.00 0.00 0.00 86 1007.5
20260505121510 71 189 8.0 12.0 0.00 0.00 0.00 86 1007.5
20260505121007 71 209 7.0 14.0 0.00 0.00 0.00 86 1007.6
20260505120508 71 197 7.0 15.0 0.00 0.00 0.00 86 1007.6
20260505115505 71 200 8.0 14.0 0.00 0.00 0.00 86 1007.5
20260505115004 71 161 5.0 13.0 0.00 0.00 0.00 86 1007.4
20260505114508 71 179 8.0 13.0 0.00 0.00 0.00 86 1007.2
20260505114006 70 167 8.0 13.0 0.00 0.00 0.00 86 1007.2
20260505113506 70 200 7.0 15.0 0.00 0.00 0.00 86 1007.1
20260505113011 70 196 6.0 15.0 0.00 0.00 0.00 86 1007.3
20260505112506 70 186 6.0 12.0 0.00 0.00 0.00 86 1007.4
20260505112007 70 202 8.0 13.0 0.00 0.00 0.00 86 1007.4
20260505111516 70 195 8.0 13.0 0.00 0.00 0.00 87 1007.4
20260505111010 70 183 9.0 16.0 0.00 0.00 0.00 87 1007.4
20260505110507 70 223 6.0 16.0 0.00 0.00 0.00 87 1007.4
20260505102008 69 199 6.0 11.0 0.00 0.00 0.00 88 1007.5
20260505101517 69 190 7.0 11.0 0.00 0.00 0.00 88 1007.5
20260505101007 69 182 6.0 11.0 0.00 0.00 0.00 88 1007.6
20260505100508 69 167 6.0 11.0 0.00 0.00 0.00 88 1007.7
20260505100022 69 184 6.0 12.0 0.00 0.00 0.00 87 1007.6
20260505095507 70 189 6.0 13.0 0.00 0.00 0.00 87 1007.4
20260505095006 70 164 6.0 13.0 0.00 0.00 0.00 87 1007.4
20260505094523 70 209 7.0 13.0 0.00 0.00 0.00 87 1007.5
20260505094006 70 169 7.0 13.0 0.00 0.00 0.00 86 1007.5
20260505093507 70 198 8.0 12.0 0.00 0.00 0.00 86 1007.6
20260505093031 70 213 8.0 14.0 0.00 0.00 0.00 86 1007.7
20260505092506 70 167 8.0 14.0 0.00 0.00 0.00 86 1007.5
20260505092007 70 186 7.0 14.0 0.00 0.00 0.00 86 1007.6
20260505091507 70 184 8.0 13.0 0.00 0.00 0.00 86 1007.7
20260505091007 70 202 8.0 13.0 0.00 0.00 0.00 87 1007.7
20260505090505 70 203 7.0 16.0 0.00 0.00 0.00 87 1007.7
20260505090011 70 200 5.0 15.0 0.00 0.00 0.00 87 1007.7
20260505085511 70 176 7.0 12.0 0.00 0.00 0.00 87 1007.6
20260505085007 70 168 6.0 12.0 0.00 0.00 0.00 87 1007.7
20260505084512 70 180 6.0 12.0 0.00 0.00 0.00 87 1007.9
20260505084006 70 215 6.0 13.0 0.00 0.00 0.00 87 1008.0
20260505083510 70 186 7.0 13.0 0.00 0.00 0.00 86 1007.9
20260505083011 70 213 7.0 14.0 0.00 0.00 0.00 86 1008.0
20260505082507 70 140 7.0 14.0 0.00 0.00 0.00 87 1008.1
20260505082010 70 164 8.0 15.0 0.00 0.00 0.00 86 1008.3
20260505081510 70 168 7.0 15.0 0.00 0.00 0.00 86 1008.3
20260505081006 70 201 7.0 13.0 0.00 0.00 0.00 86 1008.3
20260505080505 70 194 7.0 16.0 0.00 0.00 0.00 86 1008.5
20260505080014 70 185 8.0 16.0 0.00 0.00 0.00 86 1008.5
20260505075507 70 179 9.0 15.0 0.00 0.00 0.00 86 1008.3
20260505075007 70 128 8.0 14.0 0.00 0.00 0.00 86 1008.3
20260505074519 70 173 8.0 14.0 0.00 0.00 0.00 86 1008.4
20260505074007 70 169 7.0 18.0 0.00 0.00 0.00 86 1008.4
20260505073003 70 202 7.0 14.0 0.00 0.00 0.00 86 1008.6
20260505072507 70 206 8.0 14.0 0.00 0.00 0.00 86 1008.7
20260505072004 70 184 6.0 14.0 0.00 0.00 0.00 86 1008.9
20260505071507 70 211 9.0 13.0 0.00 0.00 0.00 86 1008.8
20260505071004 70 175 7.0 18.0 0.00 0.00 0.00 86 1008.8
20260505070506 70 177 9.0 18.0 0.00 0.00 0.00 86 1008.9
20260505070011 70 204 8.0 17.0 0.00 0.00 0.00 86 1008.8
20260505065506 70 203 10.0 17.0 0.00 0.00 0.00 86 1008.8
20260505065003 70 187 8.0 17.0 0.00 0.00 0.00 86 1009.0
20260505064509 70 154 8.0 17.0 0.00 0.00 0.00 86 1009.1
20260505064008 70 196 8.0 17.0 0.00 0.00 0.00 86 1009.3
20260505063508 70 201 9.0 17.0 0.00 0.00 0.00 86 1009.3
20260505063008 70 192 9.0 17.0 0.00 0.00 0.00 85 1009.4
20260505062003 70 216 8.0 14.0 0.00 0.00 0.00 86 1009.5
20260505061508 70 188 9.0 19.0 0.00 0.00 0.00 85 1009.3
20260505061006 70 180 9.0 19.0 0.00 0.00 0.00 85 1009.5
20260505060506 70 188 10.0 16.0 0.00 0.00 0.00 85 1009.5
20260505060008 70 207 8.0 15.0 0.00 0.00 0.00 85 1009.5
20260505055503 70 168 8.0 15.0 0.00 0.00 0.00 85 1009.4
20260505055007 70 160 9.0 18.0 0.00 0.00 0.00 85 1009.2
20260505054515 70 185 8.0 18.0 0.00 0.00 0.00 85 1009.1
20260505053508 70 160 8.0 20.0 0.00 0.00 0.00 85 1008.9
20260505053014 70 133 10.0 20.0 0.00 0.00 0.00 85 1009.0
20260505052509 70 194 10.0 17.0 0.00 0.00 0.00 85 1009.0
20260505052009 70 175 9.0 20.0 0.00 0.00 0.00 84 1009.0
20260505051004 70 146 8.0 18.0 0.00 0.00 0.00 84 1009.2
20260505050506 70 175 11.0 17.0 0.00 0.00 0.00 84 1009.2
20260505041524 71 164 7.0 16.0 0.00 0.00 0.00 82 1009.6
20260505041004 71 197 9.0 16.0 0.00 0.00 0.00 82 1009.7
20260505040025 72 184 8.0 17.0 0.00 0.00 0.00 81 1009.5
20260505035505 72 138 8.0 17.0 0.00 0.00 0.00 81 1009.5
20260505035004 72 175 7.0 16.0 0.00 0.00 0.00 81 1009.5
20260505034515 72 224 6.0 16.0 0.00 0.00 0.00 81 1009.5
20260505034004 72 153 6.0 15.0 0.00 0.00 0.00 80 1009.5
20260505033506 72 205 8.0 15.0 0.00 0.00 0.00 80 1009.6
20260505033016 72 149 7.0 15.0 0.00 0.00 0.00 79 1009.5
20260505032508 72 196 7.0 14.0 0.00 0.00 0.00 79 1009.5
20260505032007 72 142 7.0 18.0 0.00 0.00 0.00 79 1009.3
20260505031008 73 184 8.0 16.0 0.00 0.00 0.00 79 1009.6
20260505030509 73 186 7.0 16.0 0.00 0.00 0.00 79 1009.7
20260505030008 73 178 6.0 15.0 0.00 0.00 0.00 79 1009.5
20260505025011 73 159 6.0 13.0 0.00 0.00 0.00 78 1009.2
20260505024511 73 161 6.0 11.0 0.00 0.00 0.00 78 1009.3
20260505024005 73 183 5.0 12.0 0.00 0.00 0.00 78 1009.2
20260505023504 73 166 6.0 12.0 0.00 0.00 0.00 77 1009.2
20260505023014 73 137 7.0 12.0 0.00 0.00 0.00 77 1009.2
20260505022504 73 162 5.0 12.0 0.00 0.00 0.00 77 1009.2
20260505022008 73 170 5.0 12.0 0.00 0.00 0.00 77 1009.1
20260505021519 74 201 5.0 12.0 0.00 0.00 0.00 77 1009.1
20260505021007 74 184 5.0 10.0 0.00 0.00 0.00 76 1009.1
20260505020507 74 169 5.0 10.0 0.00 0.00 0.00 76 1009.0
20260505020019 74 192 4.0 10.0 0.00 0.00 0.00 75 1009.0
20260505015512 74 140 5.0 10.0 0.00 0.00 0.00 75 1009.0
20260505015004 74 184 4.0 9.0 0.00 0.00 0.00 74 1009.0
20260505014519 75 172 5.0 10.0 0.00 0.00 0.00 74 1009.1
20260505014017 75 190 5.0 10.0 0.00 0.00 0.00 74 1009.0
20260505013504 75 167 5.0 11.0 0.00 0.00 0.00 73 1009.0
20260505012010 75 188 5.0 11.0 0.00 0.00 0.00 72 1008.9
20260505011513 76 169 5.0 13.0 0.00 0.00 0.00 71 1008.9
20260505011009 76 168 5.0 13.0 0.00 0.00 0.00 70 1008.9
20260505010508 76 169 6.0 12.0 0.00 0.00 0.00 70 1008.9
20260505010022 76 128 5.0 11.0 0.00 0.00 0.00 70 1008.9
20260505005507 77 186 7.0 13.0 0.00 0.00 0.00 69 1008.8
20260505005008 77 178 5.0 13.0 0.00 0.00 0.00 68 1008.8
20260505004525 77 224 6.0 14.0 0.00 0.00 0.00 68 1008.8
20260505003507 77 179 7.0 13.0 0.00 0.00 0.00 68 1008.7
20260505003024 78 155 5.0 13.0 0.00 0.00 0.00 67 1008.6
20260505002509 78 165 8.0 13.0 0.00 0.00 0.00 66 1008.6
20260505002008 78 166 8.0 13.0 0.00 0.00 0.00 66 1008.8
20260505001512 78 170 6.0 13.0 0.00 0.00 0.00 65 1008.8
20260505001008 79 169 6.0 16.0 0.00 0.00 0.00 65 1008.9
20260505000506 79 196 8.0 16.0 0.00 0.00 0.00 64 1009.0
20260505000017 79 170 7.0 14.0 0.00 0.00 0.00 65 1008.9
20260504235508 79 192 7.0 13.0 0.00 0.00 0.00 64 1008.9
20260504235008 79 184 8.0 14.0 0.00 0.00 0.00 64 1008.9
20260504234521 79 180 8.0 17.0 0.00 0.00 0.00 64 1009.0
20260504234008 79 167 10.0 17.0 0.00 0.00 0.00 63 1009.0
20260504233507 79 199 10.0 16.0 0.00 0.00 0.00 62 1009.1
20260504233014 80 214 9.0 15.0 0.00 0.00 0.00 63 1009.1
20260504232012 80 165 7.0 12.0 0.00 0.00 0.00 63 1009.1
20260504231526 80 186 7.0 12.0 0.00 0.00 0.00 62 1009.1
20260504231008 80 194 5.0 16.0 0.00 0.00 0.00 63 1009.3
20260504230506 80 137 7.0 16.0 0.00 0.00 0.00 61 1009.2
20260504230018 80 192 7.0 16.0 0.00 0.00 0.00 62 1009.4
20260504225511 80 196 8.0 16.0 0.00 0.00 0.00 61 1009.3
20260504225008 81 197 9.0 15.0 0.00 0.00 0.00 60 1009.4
20260504224522 81 138 7.0 13.0 0.00 0.00 0.00 61 1009.4
20260504224010 80 200 8.0 17.0 0.00 0.00 0.00 60 1009.5
20260504223508 80 229 9.0 17.0 0.00 0.00 0.00 62 1009.5
20260504223022 80 195 9.0 17.0 0.00 0.00 0.00 60 1009.6
20260504222510 81 196 10.0 18.0 0.00 0.00 0.00 61 1009.6
20260504222009 81 205 10.0 18.0 0.00 0.00 0.00 59 1009.7
20260504221011 81 162 11.0 19.0 0.00 0.00 0.00 59 1009.8
20260504220014 81 199 9.0 16.0 0.00 0.00 0.00 60 1009.8
20260504215509 80 192 9.0 16.0 0.00 0.00 0.00 60 1009.8
20260504215008 80 177 8.0 17.0 0.00 0.00 0.00 60 1009.9
20260504214518 81 209 10.0 17.0 0.00 0.00 0.00 60 1010.0
20260504214009 80 200 7.0 18.0 0.00 0.00 0.00 61 1010.0
20260504213508 81 183 9.0 18.0 0.00 0.00 0.00 61 1010.1
20260504213024 81 138 10.0 17.0 0.00 0.00 0.00 59 1010.2
20260504212507 81 216 9.0 17.0 0.00 0.00 0.00 63 1010.2
20260504212009 80 163 8.0 17.0 0.00 0.00 0.00 61 1010.3
20260504211525 80 192 10.0 17.0 0.00 0.00 0.00 61 1010.4
20260504211011 80 159 10.0 17.0 0.00 0.00 0.00 61 1010.6
20260504210032 80 195 10.0 18.0 0.00 0.00 0.00 60 1010.7
20260504205007 80 166 10.0 14.0 0.00 0.00 0.00 61 1011.0
20260504204506 80 192 7.0 15.0 0.00 0.00 0.00 62 1011.1
20260504203506 79 149 9.0 15.0 0.00 0.00 0.00 62 1011.4
20260504203004 79 173 8.0 15.0 0.00 0.00 0.00 62 1011.5
20260504202504 79 159 8.0 15.0 0.00 0.00 0.00 63 1011.6
20260504202004 79 159 8.0 16.0 0.00 0.00 0.00 63 1011.8
20260504201508 79 194 7.0 16.0 0.00 0.00 0.00 63 1011.9
20260504201005 79 201 8.0 13.0 0.00 0.00 0.00 64 1012.0
20260504200504 79 191 6.0 15.0 0.00 0.00 0.00 63 1012.1
20260504200014 78 170 7.0 15.0 0.00 0.00 0.00 63 1012.3
20260504195506 78 163 7.0 16.0 0.00 0.00 0.00 61 1012.3
20260504195003 79 184 7.0 16.0 0.00 0.00 0.00 63 1012.2
20260504194514 79 165 7.0 15.0 0.00 0.00 0.00 63 1012.2
20260504194010 78 173 8.0 16.0 0.00 0.00 0.00 60 1012.5
20260504193507 79 202 7.0 18.0 0.00 0.00 0.00 62 1012.5
20260504193016 79 165 9.0 18.0 0.00 0.00 0.00 63 1012.5
20260504192504 79 169 8.0 17.0 0.00 0.00 0.00 62 1012.7
20260504192003 78 196 10.0 16.0 0.00 0.00 0.00 63 1012.7
20260504191521 78 142 8.0 16.0 0.00 0.00 0.00 61 1012.9
20260504191006 79 186 8.0 14.0 0.00 0.00 0.00 64 1012.9
20260504190504 78 192 8.0 16.0 0.00 0.00 0.00 64 1012.8
20260504190008 78 165 7.0 14.0 0.00 0.00 0.00 63 1013.0
20260504185507 77 197 9.0 19.0 0.00 0.00 0.00 64 1013.0
20260504184003 76 184 7.0 15.0 0.00 0.00 0.00 66 1013.1
20260504183507 77 141 9.0 15.0 0.00 0.00 0.00 66 1013.3
20260504183030 76 183 8.0 13.0 0.00 0.00 0.00 64 1013.4
20260504182514 76 159 6.0 23.0 0.00 0.00 0.00 65 1013.5
20260504182011 77 209 8.0 23.0 0.00 0.00 0.00 65 1013.7
20260504181507 76 231 8.0 14.0 0.00 0.00 0.00 64 1013.7
20260504181004 77 200 5.0 14.0 0.00 0.00 0.00 65 1013.8
20260504180506 76 225 7.0 14.0 0.00 0.00 0.00 64 1013.8
20260504180010 77 195 8.0 14.0 0.00 0.00 0.00 63 1013.8
20260504175505 76 209 9.0 14.0 0.00 0.00 0.00 64 1013.7
20260504175006 77 177 8.0 17.0 0.00 0.00 0.00 64 1013.8
20260504174514 77 227 9.0 17.0 0.00 0.00 0.00 62 1014.0
20260504174010 77 184 8.0 16.0 0.00 0.00 0.00 63 1014.2
20260504173506 76 208 8.0 20.0 0.00 0.00 0.00 64 1014.1
20260504173010 76 180 11.0 20.0 0.00 0.00 0.00 63 1014.1
20260504172507 77 215 10.0 16.0 0.00 0.00 0.00 63 1014.2
20260504172008 76 207 9.0 16.0 0.00 0.00 0.00 63 1014.3
20260504171508 76 187 7.0 16.0 0.00 0.00 0.00 65 1014.3
20260504170508 76 201 8.0 16.0 0.00 0.00 0.00 64 1014.5